"Pseudo-MPEC" for C1HZ872

Created 2019 Dec 3 12:07:28 UT using Find_Orb

Click here for an explanation of pseudo-MPECs

 
 Astrometry: 
     C1HZ872  C2013 02 14_RAstrometry5!2(.e,(bjQ7hd):]TVKR,/0H`-ny:)TL2/4Q;p9F51
     C1HZ872  C2013 02 14`G*Ne3CHgyts+]*-wkw+_+1q:FH0;pFx)YARG@t%c$g`JC7U(CATF51
     C1HZ872  C2013 02 147g!]KUJ9wkExfKME4Q2tUU218/,lFMH0@M@^wY6CX4c)ab=mukH*F51
     C1HZ872  C2013 02 14W3vf?hgl7iWWpQHdRkB@.K\pB)E3QPk?L18ox_,Ap=8G3`e?+-`mF51
     C1HZ872  C2013 02 262vcT%/Aredacted;09fO?Rh4*MtC8DKXclick/E=p_0([M6`\1pOF51
     C1HZ872  C2013 05 15Ro*h]4oX:lJ2jODytaIYKQnyAT5R%e*%here4hGqWp)qb-^,](+1F51
     C1HZ872  C2013 05 15DTEI_9HH^2M#=,7+-bb#l4?SLK6.0,GVW`$]bIi?fuVL\sh9eV2(F51
     C1HZ872  C2015 01 017/7!eC?2SPLXgiN7Xn#.$)jwL*(p5e.xV/cS)O-YU?GDm^#a;1@yF51
     C1HZ872  C2015 01 01U=K_4-0IrGNMd\09ijH.kform!)J=x[7wj.PB0:k\Xle_VGpI6:rF51
     C1HZ872  C2015 01 01x+?ShiJf$adnp@x8*8^gJ*,0aSZdCt6AY/NGxy3V`Q%VLWIVp-CtF51
     C1HZ872  C2016 08 117O*R\q%l-K=OLo(:hE+yqHNf/KaUE-kd$KVeK\\T.R\2%H=$s3!iF51
     C1HZ872  C2016 08 11'ai\,v'JTR'@X=2%.I(@(*7,WKfYKU`2Dvru#COV$o4ALFZ#(!+fF51
     C1HZ872  C2016 08 118kDcW#hfce_s`pirt_`o1a;EdxFJd9;bMeE9(EXAr^B.VG=12X'WF51
     C1HZ872  C2016 08 11vYXFwq`MiKr\.r;Oj33guD)v;o.sP@o/xp,o2FB!Lo7Zg,cW@wD;F51
     C1HZ872  C2019 10 05u(86Qc'@2jr(Pg:wdoIYa]FmFWgCV)r8ubCO%JJ8nBtDdiu(8D;yF51
     C1HZ872  C2019 10 05[;G(L4%\qxtF:=v@AFX5B,4,u/hh.)giD4qq#wStO(Aiyq/u=A09F51
     C1HZ872  C2019 10 05(x#.hkpr3_p!1A$bOS7WtZ0kD+b?p!Gn!%VDJL]ff9Q.q9]J*nDdF51
     C1HZ872  C2019 10 09Xibd+(4-O(b._,YepQC/(Q'uhQ%6PDns,2%hFfrO(h5_-kV_4?A?F51
     C1HZ872  C2019 10 09FqaRPw\NFU[2Z#Yub)*r;7=qP,kLKkCgCs%Hd5]wI`0J6LSlVK-mF51
     C1HZ872  C2019 10 28BYxNJJ;mA9@_h$-%UW@e[V7hGexplanationm/n5hld8.c_G*D?LF51
     C1HZ872  C2019 11 30HMR#^LBs\3a^ZTm)i6O-(lK6/0]9/#@1*L5hx1;4ErYV?byUla^^F51
     C1HZ872  C2019 12 03.31618 03 37 12.47 +25 46 31.8    ~C38b 21.0 GVNEOCPG96
     C1HZ872  C2019 12 03.32755 03 37 11.11 +25 46 40.2    ~C38b 21.1 GVNEOCPG96
     C1HZ872  C2019 12 03.33322 03 37 10.44 +25 46 43.8    ~C38b 20.9 GVNEOCPG96

Station data:
(F51) Pan-STARRS 1, Haleakala  (N20.707235 W156.255910)  US/Hawaii.
   Observers N. Primak, A. Schultz, S. Watters, J. Thiel, T. Goggia. Measurer
   PS1 Science Consortium. 1.8-m Ritchey-Chrétien + CCD.
(G96) Mt. Lemmon Survey  (N32.442754 W110.788720)  US/Arizona.  Observers T.
   A. Pruyne, B. M. Africano, J. D. Ahern, E. C. Beshore, A. Boattini, E. J.
   Christensen, G. A. Farneth, D. C. Fuls, A. R. Gibbs, A. D. Grauer, H.
   Gröller, R. E. Hill, J. A. Johnson, R. A. Kowalski, S. M. Larson, G. J.
   Leonard, R. G. Matheny, R. H. McNaught, D. Rankin, R. L. Seaman, F. C.
   Shelly. 1.5-m reflector + 4K CCD + 10K CCD.

Orbital elements:  C1HZ872
   Perihelion 2020 Oct 17.673962 +/- 0.000943 TT = 16:10:30 (JD 2459140.173962)
Epoch 2019 Dec  3.0 TT = JDT 2458820.5   Earth MOID: 0.7519   AutoNEOCP
M 237.66950820 +/- 0.00035          (J2000 ecliptic)
n   0.38267267 +/- 3.26e-8          Peri.  136.27163 +/- 0.00031
a   1.87896090 +/- 1.07e-7          Node    58.11732 +/- 0.000035
e   0.0773511 +/- 2.35e-7           Incl.   26.83736 +/- 0.000031
P   2.58/940.73d           H 19.2   G  0.15   U  1.3  
q 1.73362121 +/- 4.9e-7    Q 2.02430060 +/- 4.11e-7
From 24 observations 2013 Feb. 14-2019 Dec. 3; mean residual 0".17
Residuals in arcseconds: 
130214 F51  .16-  .07+    150101 F51  .27-  .08+    191005 F51  .06+  .18-    
130214 F51  .14+  .09+    150101 F51  .16+  .04-    191009 F51  .37+  .00     
130214 F51  .03-  .03-    160811 F51  .22+  .04+    191009 F51  .10+  .09+    
130214 F51  .08+  .06+    160811 F51  .13-  .51+    191028 F51  .05+  .07-    
130226 F51  .28-  .38-    160811 F51  .26-  .30-    191130 F51  .09+  .07-    
130515 F51  .12-  .01-    160811 F51  .18+  .07-    191203 G96  .03-  .13-    
130515 F51  .12+  .09+    191005 F51  .01+  .03+    191203 G96  .19-  .21+    
150101 F51  .04-  .19+    191005 F51  .04-  .03-    191203 G96  .17-  .20-    

Ephemerides (geocentric):
Date (UTC) HH   RA              Dec         delta   r     elong  mag " sig PA
---- -- -- --  -------------   -----------  ------ ------ -----  --- ---- ---
2019 12 03 12  03 36 51.486   +25 48 44.73  0.9932 1.9639 165.8 21.1 .019  11
2019 12 03 13  03 36 46.692   +25 49 14.51  0.9933 1.9638 165.8 21.1 .019  11
2019 12 03 14  03 36 41.899   +25 49 44.26  0.9934 1.9638 165.7 21.1 .019  11
2019 12 03 15  03 36 37.109   +25 50 13.99  0.9935 1.9638 165.7 21.1 .019  11
2019 12 03 16  03 36 32.321   +25 50 43.71  0.9936 1.9637 165.6 21.2 .019  11
2019 12 03 17  03 36 27.534   +25 51 13.40  0.9937 1.9637 165.6 21.2 .019  11
2019 12 03 18  03 36 22.750   +25 51 43.07  0.9938 1.9637 165.5 21.2 .019  10
2019 12 03 19  03 36 17.968   +25 52 12.72  0.9939 1.9636 165.4 21.2 .019  10
2019 12 03 20  03 36 13.188   +25 52 42.35  0.9940 1.9636 165.4 21.2 .019  10
2019 12 03 21  03 36 08.410   +25 53 11.96  0.9941 1.9636 165.3 21.2 .019  10
2019 12 03 22  03 36 03.634   +25 53 41.55  0.9942 1.9635 165.3 21.2 .019  10
2019 12 03 23  03 35 58.860   +25 54 11.12  0.9943 1.9635 165.2 21.2 .019  10
2019 12 04 00  03 35 54.089   +25 54 40.67  0.9944 1.9635 165.2 21.2 .019  10
2019 12 04 01  03 35 49.320   +25 55 10.19  0.9945 1.9634 165.1 21.2 .019  10
2019 12 04 02  03 35 44.552   +25 55 39.70  0.9946 1.9634 165.0 21.2 .019  10
2019 12 04 03  03 35 39.787   +25 56 09.19  0.9947 1.9634 165.0 21.2 .019  10
2019 12 04 04  03 35 35.024   +25 56 38.65  0.9948 1.9633 164.9 21.2 .019  10
2019 12 04 05  03 35 30.264   +25 57 08.10  0.9949 1.9633 164.9 21.2 .020  10
2019 12 04 06  03 35 25.505   +25 57 37.52  0.9950 1.9633 164.8 21.2 .020  10
2019 12 04 07  03 35 20.749   +25 58 06.93  0.9951 1.9633 164.8 21.2 .020  10
2019 12 04 08  03 35 15.995   +25 58 36.31  0.9952 1.9632 164.7 21.2 .020  10
2019 12 04 09  03 35 11.243   +25 59 05.67  0.9953 1.9632 164.6 21.2 .020  10
2019 12 04 10  03 35 06.493   +25 59 35.01  0.9954 1.9632 164.6 21.2 .020  10
2019 12 04 11  03 35 01.746   +26 00 04.33  0.9955 1.9631 164.5 21.2 .020  10
2019 12 04 12  03 34 57.001   +26 00 33.63  0.9956 1.9631 164.5 21.2 .020  10
2019 12 04 13  03 34 52.258   +26 01 02.91  0.9958 1.9631 164.4 21.2 .020  10
2019 12 04 14  03 34 47.518   +26 01 32.17  0.9959 1.9630 164.4 21.2 .020  10
2019 12 04 15  03 34 42.780   +26 02 01.41  0.9960 1.9630 164.3 21.2 .020  10
2019 12 04 16  03 34 38.044   +26 02 30.63  0.9961 1.9630 164.2 21.2 .020  10
2019 12 04 17  03 34 33.311   +26 02 59.82  0.9962 1.9629 164.2 21.2 .020  10
2019 12 04 18  03 34 28.580   +26 03 29.00  0.9963 1.9629 164.1 21.2 .020  10
2019 12 04 19  03 34 23.851   +26 03 58.15  0.9964 1.9629 164.1 21.2 .020   9
2019 12 04 20  03 34 19.125   +26 04 27.29  0.9965 1.9628 164.0 21.2 .020   9
2019 12 04 21  03 34 14.401   +26 04 56.40  0.9967 1.9628 164.0 21.2 .020   9
2019 12 04 22  03 34 09.679   +26 05 25.50  0.9968 1.9628 163.9 21.2 .020   9
2019 12 04 23  03 34 04.960   +26 05 54.57  0.9969 1.9627 163.8 21.2 .020   9
2019 12 05 00  03 34 00.243   +26 06 23.62  0.9970 1.9627 163.8 21.2 .020   9
2019 12 05 01  03 33 55.529   +26 06 52.65  0.9971 1.9627 163.7 21.2 .020   9
2019 12 05 02  03 33 50.817   +26 07 21.66  0.9972 1.9627 163.7 21.2 .020   9
2019 12 05 03  03 33 46.107   +26 07 50.65  0.9973 1.9626 163.6 21.2 .020   9
2019 12 05 04  03 33 41.400   +26 08 19.62  0.9975 1.9626 163.6 21.2 .020   9
2019 12 05 05  03 33 36.696   +26 08 48.56  0.9976 1.9626 163.5 21.2 .020   9
2019 12 05 06  03 33 31.994   +26 09 17.49  0.9977 1.9625 163.4 21.2 .020   9
2019 12 05 07  03 33 27.294   +26 09 46.40  0.9978 1.9625 163.4 21.2 .020   9
2019 12 05 08  03 33 22.597   +26 10 15.28  0.9979 1.9625 163.3 21.2 .020   9
2019 12 05 09  03 33 17.902   +26 10 44.15  0.9981 1.9624 163.3 21.2 .020   9
2019 12 05 10  03 33 13.210   +26 11 12.99  0.9982 1.9624 163.2 21.2 .020   9
2019 12 05 11  03 33 08.521   +26 11 41.81  0.9983 1.9624 163.2 21.2 .020   9